Hourly Weather Klekotki

Today, 29 July, Thursday

Time Temperature Precipitation Wind Pressure Humidity
00:00 +18°C° 0 mm 3 mps 741 mmHg 91%
01:00 +18°C° 0.4 mm 4 mps 740 mmHg 92%
02:00 +18°C° 0.4 mm 4 mps 740 mmHg 93%
03:00 +18°C° 0 mm 4 mps 740 mmHg 92%
04:00 +18°C° 0.2 mm 4 mps 739 mmHg 92%
05:00 +18°C° 0.2 mm 4 mps 739 mmHg 92%
06:00 +18°C° 0.2 mm 4 mps 739 mmHg 91%
07:00 +20°C° 0.3 mm 4 mps 739 mmHg 86%
08:00 +21°C° 0.3 mm 4 mps 739 mmHg 81%
09:00 +23°C° 0.3 mm 4 mps 739 mmHg 76%
10:00 +25°C° 0 mm 4 mps 739 mmHg 68%
11:00 +27°C° 0 mm 5 mps 739 mmHg 60%
12:00 +29°C° 0 mm 5 mps 739 mmHg 51%
13:00 +29°C° 0 mm 6 mps 738 mmHg 48%
14:00 +30°C° 0 mm 6 mps 738 mmHg 45%
15:00 +30°C° 0 mm 6 mps 738 mmHg 42%
16:00 +30°C° 0 mm 5 mps 738 mmHg 46%
17:00 +29°C° 0 mm 4 mps 738 mmHg 49%
18:00 +28°C° 0 mm 3 mps 738 mmHg 53%
19:00 +27°C° 0 mm 3 mps 738 mmHg 57%
20:00 +25°C° 0 mm 3 mps 738 mmHg 61%
21:00 +24°C° 0 mm 3 mps 738 mmHg 65%
22:00 +24°C° 0 mm 3 mps 738 mmHg 66%
23:00 +23°C° 0 mm 2 mps 738 mmHg 67%

Tomorrow, 30 July, Friday

Time Temperature Precipitation Wind Pressure Humidity
00:00 +23°C° 0 mm 2 mps 738 mmHg 68%
01:00 +23°C° 0 mm 2 mps 737 mmHg 69%
02:00 +21°C° 0 mm 2 mps 737 mmHg 70%
03:00 +21°C° 0 mm 2 mps 737 mmHg 71%
04:00 +21°C° 0 mm 2 mps 737 mmHg 72%
05:00 +21°C° 0 mm 2 mps 737 mmHg 73%
06:00 +21°C° 0 mm 2 mps 737 mmHg 74%
07:00 +21°C° 0.3 mm 2 mps 737 mmHg 75%
08:00 +23°C° 0.3 mm 2 mps 737 mmHg 76%
09:00 +23°C° 0.3 mm 1 mps 737 mmHg 77%
10:00 +25°C° 0.1 mm 2 mps 737 mmHg 70%
11:00 +27°C° 0.1 mm 3 mps 737 mmHg 63%
12:00 +29°C° 0.1 mm 3 mps 737 mmHg 56%
13:00 +29°C° 0.1 mm 4 mps 737 mmHg 55%
14:00 +29°C° 0.1 mm 5 mps 737 mmHg 54%
15:00 +29°C° 0.1 mm 6 mps 737 mmHg 53%
16:00 +28°C° 0 mm 5 mps 737 mmHg 55%
17:00 +28°C° 0 mm 5 mps 737 mmHg 56%
18:00 +27°C° 0 mm 5 mps 737 mmHg 58%
19:00 +26°C° 0 mm 4 mps 737 mmHg 64%
20:00 +24°C° 0 mm 3 mps 737 mmHg 71%
21:00 +23°C° 0 mm 2 mps 737 mmHg 77%
22:00 +21°C° 0 mm 2 mps 737 mmHg 79%
23:00 +20°C° 0 mm 3 mps 737 mmHg 82%

Day after tomorrow, 31 July, Saturday

Time Temperature Precipitation Wind Pressure Humidity
00:00 +20°C° 0 mm 3 mps 738 mmHg 84%
01:00 +19°C° 0 mm 3 mps 738 mmHg 84%
02:00 +19°C° 0 mm 3 mps 738 mmHg 84%
03:00 +18°C° 0 mm 3 mps 737 mmHg 84%
04:00 +18°C° 0 mm 3 mps 738 mmHg 82%
05:00 +18°C° 0 mm 3 mps 738 mmHg 79%
06:00 +18°C° 0 mm 3 mps 738 mmHg 76%
07:00 +20°C° 0 mm 4 mps 738 mmHg 66%
08:00 +22°C° 0 mm 5 mps 738 mmHg 56%
09:00 +24°C° 0 mm 6 mps 739 mmHg 46%
10:00 +26°C° 0 mm 6 mps 739 mmHg 42%
11:00 +27°C° 0 mm 6 mps 739 mmHg 39%
12:00 +29°C° 0 mm 6 mps 739 mmHg 35%
13:00 +29°C° 0 mm 7 mps 739 mmHg 35%
14:00 +29°C° 0 mm 7 mps 739 mmHg 35%
15:00 +30°C° 0 mm 7 mps 739 mmHg 35%
16:00 +29°C° 0 mm 6 mps 739 mmHg 38%
17:00 +28°C° 0 mm 5 mps 739 mmHg 42%
18:00 +27°C° 0 mm 4 mps 739 mmHg 45%
19:00 +26°C° 0 mm 3 mps 739 mmHg 49%
20:00 +25°C° 0 mm 3 mps 739 mmHg 53%
21:00 +24°C° 0 mm 2 mps 739 mmHg 57%
22:00 +23°C° 0 mm 2 mps 740 mmHg 60%
23:00 +21°C° 0 mm 2 mps 740 mmHg 63%

1 August, Sunday

Time Temperature Precipitation Wind Pressure Humidity
00:00 +20°C° 0 mm 2 mps 740 mmHg 66%
01:00 +20°C° 0 mm 2 mps 740 mmHg 68%
02:00 +19°C° 0 mm 2 mps 741 mmHg 70%
03:00 +18°C° 0 mm 2 mps 741 mmHg 72%
04:00 +19°C° 0 mm 2 mps 741 mmHg 72%
05:00 +19°C° 0 mm 2 mps 741 mmHg 72%
06:00 +19°C° 0 mm 2 mps 741 mmHg 72%
07:00 +21°C° 0 mm 2 mps 741 mmHg 64%
08:00 +24°C° 0 mm 2 mps 741 mmHg 57%
09:00 +26°C° 0 mm 3 mps 741 mmHg 50%
10:00 +28°C° 0 mm 3 mps 741 mmHg 46%
11:00 +30°C° 0 mm 4 mps 741 mmHg 41%
12:00 +32°C° 0 mm 5 mps 741 mmHg 37%
13:00 +33°C° 0 mm 5 mps 741 mmHg 34%
14:00 +34°C° 0 mm 6 mps 741 mmHg 32%
15:00 +35°C° 0 mm 6 mps 740 mmHg 29%
16:00 +34°C° 0 mm 6 mps 740 mmHg 30%
17:00 +34°C° 0 mm 6 mps 740 mmHg 31%
18:00 +34°C° 0 mm 6 mps 739 mmHg 31%
19:00 +32°C° 0 mm 5 mps 739 mmHg 37%
20:00 +28°C° 0 mm 4 mps 740 mmHg 42%
21:00 +26°C° 0 mm 3 mps 740 mmHg 47%
22:00 +25°C° 0 mm 3 mps 740 mmHg 50%
23:00 +25°C° 0 mm 3 mps 739 mmHg 53%

2 August, Monday

Time Temperature Precipitation Wind Pressure Humidity
00:00 +24°C° 0 mm 3 mps 739 mmHg 56%
01:00 +22°C° 0.2 mm 3 mps 740 mmHg 61%
02:00 +21°C° 0.2 mm 2 mps 740 mmHg 67%
03:00 +21°C° 0.2 mm 2 mps 740 mmHg 72%
04:00 +21°C° 0.1 mm 2 mps 740 mmHg 73%
05:00 +22°C° 0.1 mm 1 mps 740 mmHg 75%
06:00 +22°C° 0.1 mm 1 mps 740 mmHg 76%
07:00 +24°C° 0 mm 2 mps 740 mmHg 69%
08:00 +26°C° 0 mm 2 mps 740 mmHg 62%
09:00 +28°C° 0 mm 2 mps 740 mmHg 56%
10:00 +30°C° 0 mm 3 mps 739 mmHg 49%
11:00 +33°C° 0 mm 4 mps 739 mmHg 42%
12:00 +35°C° 0 mm 4 mps 739 mmHg 35%
13:00 +35°C° 0 mm 5 mps 738 mmHg 33%
14:00 +35°C° 0 mm 6 mps 738 mmHg 30%
15:00 +36°C° 0 mm 6 mps 737 mmHg 28%
16:00 +35°C° 0 mm 6 mps 737 mmHg 29%
17:00 +35°C° 0 mm 6 mps 736 mmHg 31%
18:00 +34°C° 0 mm 7 mps 736 mmHg 33%
19:00 +32°C° 0 mm 5 mps 736 mmHg 39%
20:00 +29°C° 0 mm 4 mps 736 mmHg 45%
21:00 +26°C° 0 mm 3 mps 736 mmHg 51%
22:00 +25°C° 0.2 mm 3 mps 736 mmHg 57%
23:00 +25°C° 0.2 mm 3 mps 736 mmHg 62%

3 August, Tuesday

Time Temperature Precipitation Wind Pressure Humidity
00:00 +23°C° 0.2 mm 4 mps 736 mmHg 67%
01:00 +22°C° 0.5 mm 3 mps 736 mmHg 76%
02:00 +20°C° 0.5 mm 2 mps 736 mmHg 84%
03:00 +20°C° 0.5 mm 1 mps 736 mmHg 92%
04:00 +19°C° 0.1 mm 2 mps 736 mmHg 92%
05:00 +19°C° 0.1 mm 3 mps 737 mmHg 92%
06:00 +19°C° 0.1 mm 4 mps 737 mmHg 92%
07:00 +19°C° 0 mm 5 mps 737 mmHg 89%
08:00 +20°C° 0 mm 5 mps 738 mmHg 86%
09:00 +20°C° 0 mm 6 mps 738 mmHg 83%
10:00 +20°C° 0 mm 6 mps 739 mmHg 75%
11:00 +21°C° 0 mm 6 mps 739 mmHg 68%
12:00 +22°C° 0 mm 6 mps 740 mmHg 60%
13:00 +23°C° 0 mm 6 mps 740 mmHg 53%
14:00 +24°C° 0 mm 6 mps 740 mmHg 47%
15:00 +26°C° 0 mm 6 mps 740 mmHg 40%
16:00 +26°C° 0 mm 6 mps 741 mmHg 41%
17:00 +24°C° 0 mm 6 mps 741 mmHg 43%
18:00 +24°C° 0 mm 6 mps 741 mmHg 44%
19:00 +23°C° 0 mm 5 mps 742 mmHg 49%
20:00 +21°C° 0 mm 4 mps 742 mmHg 55%
21:00 +20°C° 0 mm 4 mps 743 mmHg 60%
22:00 +18°C° 0 mm 3 mps 743 mmHg 68%
23:00 +17°C° 0 mm 3 mps 744 mmHg 76%
Show more